Location: Hamburg
(53.5554°N, 9.9941°E)
Time: 03:35:40
(UTC+02:00)

ISS - Visible Passes

Search period start: 21 September 2017 00:00
Search period end: 01 October 2017 00:00
Orbit: 402 x 407 km, 51.6° (Epoch: 21 September)

Date Brightness Start Highest point End Pass type
(mag) Time Alt. Az. Time Alt. Az. Time Alt. Az.
26 Sep -1.6 20:28:58 10° S 20:29:45 12° SSE 20:29:45 12° SSE visible
27 Sep -1.9 21:11:08 10° SW 21:12:33 20° SSW 21:12:33 20° SSW visible
28 Sep -2.3 20:19:16 10° SSW 20:21:49 21° SSE 20:22:31 20° SE visible
28 Sep -1.0 21:54:38 10° WSW 21:55:11 14° WSW 21:55:11 14° WSW visible
29 Sep -3.0 21:02:24 10° SW 21:05:01 39° S 21:05:01 39° S visible
30 Sep -2.9 20:10:14 10° SW 20:13:12 32° SSE 20:14:44 21° ESE visible
30 Sep -1.5 21:46:09 10° WSW 21:47:23 21° WSW 21:47:23 21° WSW visible
